User: anonymous   Login
Location: Trois-Rivi�res
(46.3500°N, 72.5500°W)
Time: 17:45:14
(UTC-04:00)
Language:

Cosmos 1544 - Orbit

View from above orbital plane
View from above orbital plane
View from above satellite
View from above satellite

Ground track
Ground track

The orbit data is extracted from the following two-line orbital elements,

1 14819U 84027A   17233.33857996  .00001724  00000-0  65679-4 0  9991
2 14819  82.4862 322.2864 0014812 165.1692 194.9983 15.25934420825742
Epoch (UTC): 21 August 2017 08:07:33
Eccentricity: 0.0014812
inclination: 82.4862°
perigee height: 478 km
apogee height: 498 km
right ascension of ascending node: 322.2864°
argument of perigee: 165.1692°
revolutions per day: 15.25934420
mean anomaly at epoch: 194.9983°
orbit number at epoch: 82574

The dashed part of the orbit path shows where the satellite is in the earth's shadow,  

DLR